Tracking 35055 objects as of 18-Aug-2026
HD Live streaming from Space Station
objects crossing your sky now

STARLINK-38197


10-day predictions
STARLINK-38197 is classified as:


NORAD ID: 100171
Int'l Code: 2026-171Z
Launch date: July 25, 2026
Source: United States (US)
Launch site: AIR FORCE WESTERN TEST RANGE (AFWTR)
Your satellite tracking list
Your tracking list is empty




NASA's NSSDC Master Catalog

Two Line Element Set (TLE):
1 A0171U 26171Z   26229.60866776  .00167500  00000-0  11022-2 0  9990
2 A0171  97.2833 261.6460 0001378  87.0568 273.0855 15.75184619  3641
Source of the keplerian elements: AFSPC